STARLINK-36824

Last updated on Fri Mar 27 2026 00:02:06 GMT+0000 (Coordinated Universal Time)

1 67953U 26037X 26085.33391917 .00097779 00000+0 16515-2 0 9993 2 67953 42.9997 98.7016 0000695 185.5549 174.5303 15.50583470 5860
UTC large
Height (km)
Speed (km/s)
/
Latitude / Longitude
Inclination (degrees)
Orbital Period (minutes)
Azimuth
Elevation
Range (km)
Doppler Factor

Next 0 passes for location: London (51.5072 / 0.1276)

Sorry there are no passes over London.